TimeMST,TemperatureF,Dew PointF,Humidity,Sea Level PressureIn,VisibilityMPH,Wind Direction,Wind SpeedMPH,Gust SpeedMPH,PrecipitationIn,Events,Conditions,WindDirDegrees,DateUTC
12:54 AM,39.9,19.9,45,29.65,10.0,SSW,6.9,-,N/A,,Clear,210,2013-01-28 07:54:00
1:54 AM,42.1,21.9,45,29.64,10.0,West,6.9,-,N/A,,Clear,260,2013-01-28 08:54:00
2:54 AM,43.0,23.0,45,29.64,10.0,SSW,13.8,-,N/A,,Clear,200,2013-01-28 09:54:00
3:54 AM,41.0,24.1,51,29.63,10.0,SSW,13.8,-,N/A,,Clear,210,2013-01-28 10:54:00
4:54 AM,41.0,23.0,49,29.62,10.0,SW,9.2,-,N/A,,Clear,230,2013-01-28 11:54:00
5:54 AM,44.1,24.1,45,29.61,10.0,SSW,3.5,-,N/A,,Clear,200,2013-01-28 12:54:00
6:54 AM,44.1,24.1,45,29.62,10.0,Variable,3.5,-,N/A,,Clear,0,2013-01-28 13:54:00
7:54 AM,48.0,23.0,37,29.60,10.0,WSW,13.8,17.3,N/A,,Clear,240,2013-01-28 14:54:00
8:54 AM,53.1,24.1,32,29.55,10.0,SSW,21.9,33.4,N/A,,Clear,210,2013-01-28 15:54:00
10:54 AM,57.9,21.9,25,29.51,10.0,SSW,26.5,35.7,N/A,,Clear,210,2013-01-28 17:54:00
11:54 AM,61.0,21.9,22,29.50,10.0,SSW,21.9,34.5,N/A,,Clear,210,2013-01-28 18:54:00
12:54 PM,60.1,21.0,22,29.48,10.0,SW,21.9,32.2,N/A,,Clear,220,2013-01-28 19:54:00
1:54 PM,57.9,21.0,24,29.46,10.0,SSW,16.1,34.5,N/A,,Partly Cloudy,210,2013-01-28 20:54:00
2:54 PM,55.9,24.1,29,29.48,10.0,West,23.0,36.8,0.00,Rain,Light Rain,270,2013-01-28 21:54:00
3:54 PM,53.1,21.0,29,29.52,10.0,WSW,21.9,32.2,0.00,,Overcast,250,2013-01-28 22:54:00
4:54 PM,46.9,27.0,46,29.57,10.0,SW,21.9,32.2,0.00,,Mostly Cloudy,230,2013-01-28 23:54:00
5:54 PM,45.0,24.1,44,29.57,10.0,SW,16.1,-,N/A,,Partly Cloudy,220,2013-01-29 00:54:00
6:54 PM,42.1,23.0,47,29.59,10.0,SW,12.7,-,N/A,,Clear,230,2013-01-29 01:54:00
7:54 PM,39.0,25.0,57,29.60,10.0,West,10.4,-,N/A,,Clear,270,2013-01-29 02:54:00
8:54 PM,37.0,24.1,59,29.60,10.0,SW,11.5,-,N/A,,Scattered Clouds,230,2013-01-29 03:54:00
9:54 PM,39.0,19.0,45,29.57,10.0,WSW,17.3,-,N/A,,Clear,240,2013-01-29 04:54:00
10:54 PM,36.0,18.0,48,29.57,10.0,WSW,5.8,-,N/A,,Partly Cloudy,240,2013-01-29 05:54:00
11:54 PM,34.0,19.0,54,29.57,10.0,NNW,6.9,-,N/A,,Mostly Cloudy,340,2013-01-29 06:54:00